Torna al catalogo

STARLINK-2683

AttivoComunicazioniVLEO
NORAD 48462·PAYLOAD·🇺🇸 United States

Lanciato May 9, 2021 da Cape Canaveral Space Force Station

Loading…

Prossimi Passaggi (prossime 24 ore)

TLE

AggiornatoSource: CelesTrak SupGP

Epoca: Sep 14, 2026, 21:19 UTC

1 48462C 21040AL  26257.88868056  .00024115  00000+0  77622-3 0  2578
2 48462  53.1603  30.5826 0001280  80.1331 261.5266 15.31659858    15

Traccia STARLINK-2683 in tempo reale con AllMySat

Download on the App Store